sat.trackr.live / text

‹ back to catalog

STARLINK-34017

NORAD 64339 · 2025-124Y

PAYLOAD ACTIVE UNKNOWN

§ Identity

Operator
Country
US
Launch date
2025-06-10
Launch site
AFETR
Launch vehicle
Mass (kg)
RCS (m²)

Purposes: comms

External: N2YO · Heavens-Above · Gunter

§ Orbital elements

Epoch: 2026-09-19T21:46:53.247936Z

Period
94.27 min
Inclination
43.0010°
Eccentricity
0.0002079
Mean motion
15.27602308 rev/d
Perigee alt
481.6 km
Apogee alt
484.4 km
Semi-major
6,861.1 km
B*
5.4975e-4
RAAN
104.8498°
Arg perigee
264.4676°
Mean anomaly
95.5938°
Rev number
7,148

§ Raw data

STARLINK-340171 64339U 25124Y   26262.90756074  .00014907  00000+0  54975-3 0  99982 64339  43.0010 104.8498 0002079 264.4676  95.5938 15.27602308 71485

JSON: /api/v1/satellites/64339 · /tle

For live sub-satellite position, see the globe view (requires WebGL).

§ Visibility from observer

Set your observer location to see the next 7 days of passes ≥ 10°. The values pass through the URL so the page stays shareable.

No JS? Fill the form by hand. The geolocation button needs JavaScript.